Flag for Germany Weather past 2 weeks in Weißenfels, Saxony-Anhalt, Germany

Now
47 °F

Overcast.


Feels Like: 40 °F
Forecast: 38 / 51 °F
Wind: 15 mph from Northwest

Location: Leipzig-Schkeuditz

Current Time: Mar 30, 2015 at 3:59:05 PM

Latest Report: Mar 30, 2015 at 3:00 PM


Visibility: 31 mi

Pressure: 29.50 "Hg

Humidity: 50%

Dew point: 29 °F

Location of WeißenfelsLocation

Historic Weather in Weißenfels — Graph

°F

Weißenfels temperature yesterday

Maximum temperature yesterday: 53 °F (at 1:00 PM)
Minimum temperature yesterday: 47 °F (at 12:00 AM)
Average temperature yesterday: 49 °F

Past Weeks' High & Low Weather Summary

 TemperatureHumidityPressure
High62 °F (Mar 25, 3:00 PM)97% (Mar 21, 11:00 PM)30.41 "Hg (Mar 21, 11:00 PM)
Low26 °F (Mar 23, 3:00 AM)25% (Mar 19, 3:00 PM)29.18 "Hg (Mar 30, 12:00 AM)
Average44 °F71%30.04 "Hg
* Reported Mar 15 1:00 PM — Mar 30 2:00 PM, Weißenfels, Weather by CustomWeather, © 2015

Note: Actual official high and low records may vary slightly from our data, if they occured in-between our weather recording intervals... More about our weather records

Advertising

Weißenfels weather history for previous 24 hours

 ConditionsComfort  
Time TempWeatherWind HumidityBarometerVisibility
2:00 PM
Mon, Mar 30
46 °FOvercast.13 mph51%29.47 "Hg31 mi
1:00 PM44 °FOvercast.14 mph67%29.44 "Hg31 mi
12:00 PM44 °FScattered clouds.15 mph70%29.41 "Hg28 mi
10:00 AM43 °FSprinkles. Partly sunny.14 mph71%29.35 "Hg31 mi
9:00 AM44 °FPartly sunny.14 mph62%29.35 "Hg31 mi
8:00 AM43 °FPartly sunny.12 mph78%29.32 "Hg31 mi
7:00 AM44 °FOvercast.10 mph74%29.29 "Hg25 mi
6:00 AM43 °FOvercast.9 mph75%29.29 "Hg31 mi
4:00 AM42 °FPassing clouds.12 mph80%29.29 "Hg28 mi
3:00 AM43 °FPassing clouds.13 mph78%29.26 "Hg28 mi
2:00 AM47 °FOvercast.14 mph67%29.23 "Hg25 mi
1:00 AM47 °FPassing clouds.14 mph71%29.21 "Hg28 mi
12:00 AM48 °FSprinkles. Overcast.14 mph77%29.18 "Hg28 mi
10:00 PM
Sun, Mar 29
51 °FLight rain. Overcast.10 mph83%29.21 "Hg28 mi
9:00 PM50 °FOvercast.9 mph86%29.26 "Hg28 mi
8:00 PM50 °FLight rain. Overcast.9 mph79%29.32 "Hg19 mi
7:00 PM50 °FLight rain. Overcast.8 mph83%29.35 "Hg19 mi
6:00 PM50 °FLight rain. Overcast.9 mph87%29.41 "Hg10 mi
4:00 PM50 °FLight rain. Overcast.9 mph85%29.50 "Hg12 mi
3:00 PM50 °FLight rain. Overcast.8 mph91%29.54 "Hg14 mi
Weather by CustomWeather, © 2015

See weather overviewHow to use our weather pages